This is the latest recevied weather packets stored in our database for station/object W0WC. If no packets are shown the sender has not sent any weather packets the latest 1 day(s).
| Time | Temp. | Humidity | Pressure | Rain* | Wind** | Luminosity | Snow |
|---|---|---|---|---|---|---|---|
| 1778073968 | 8.33° C | 79% | 1018.1 hPa | 0 mm | - | 104 W/m² | - |
| 1778073362 | 8.33° C | 81% | 1017.9 hPa | 0 mm | - | 69 W/m² | - |
| 1778073058 | 8.33° C | 81% | 1017.9 hPa | 0 mm | - | 63 W/m² | - |
| 1778072755 | 8.33° C | 81% | 1018 hPa | 0 mm | - | 58 W/m² | - |
| 1778072453 | 8.33° C | 81% | 1017.9 hPa | 0 mm | - | 46 W/m² | - |
| 1778072151 | 8.33° C | 82% | 1017.8 hPa | 0 mm | - | 46 W/m² | - |
| 1778070941 | 7.78° C | 85% | 1017.8 hPa | 0 mm | - | 45 W/m² | - |
| 1778070034 | 7.78° C | 87% | 1017.9 hPa | 0 mm | - | 30 W/m² | - |
| 1778069731 | 7.78° C | 88% | 1018 hPa | 0 mm | - | 20 W/m² | - |
| 1778069427 | 7.78° C | 88% | 1017.9 hPa | 0 mm | - | 15 W/m² | - |
| 1778069125 | 7.78° C | 89% | 1018.1 hPa | 0 mm | - | 15 W/m² | - |
| 1778067915 | 7.78° C | 92% | 1017.8 hPa | 0 mm | - | 6 W/m² | - |
| 1778067614 | 7.78° C | 93% | 1017.9 hPa | 0 mm | - | 5 W/m² | - |
| 1778066705 | 7.78° C | 93% | 1017.5 hPa | 0 mm | - | 2 W/m² | - |
| 1778066402 | 7.78° C | 93% | 1017.2 hPa | 0 mm | - | 1 W/m² | - |
| 1778065495 | 7.22° C | 94% | 1017.2 hPa | 0 mm | - | 0 W/m² | - |
| 1778065191 | 7.22° C | 94% | 1017.2 hPa | 0 mm | - | 0 W/m² | - |
| 1778064585 | 7.22° C | 94% | 1017 hPa | 0 mm | - | 0 W/m² | - |
| 1778064283 | 7.22° C | 94% | 1016.7 hPa | 0 mm | - | 0 W/m² | - |
| 1778063981 | 7.22° C | 94% | 1016.8 hPa | 0 mm | - | 0 W/m² | - |
| 1778063678 | 7.22° C | 93% | 1016.6 hPa | 0 mm | - | 0 W/m² | - |
| 1778063375 | 7.22° C | 93% | 1016.2 hPa | 0 mm | - | 0 W/m² | - |
| 1778062770 | 7.22° C | 93% | 1016.2 hPa | 0 mm | - | 0 W/m² | - |
| 1778062466 | 7.22° C | 93% | 1016.3 hPa | 0 mm | - | 0 W/m² | - |
| 1778060047 | 7.22° C | 93% | 1015.7 hPa | 0 mm | - | 0 W/m² | - |
* Rain latest hour (hover to see other rain measurements)
** Current wind speed in m/s (hover to see current wind gust speed)